Weather History for Nantucket, MA

Change the Weather History Date:

Saturday, October 6, 2012

  Actual Average Record
Temperature  
Mean Temperature 65 °F -  
Max Temperature 71 °F 65 °F 74 °F (1976)
Min Temperature 59 °F 51 °F 31 °F (1965)
Growing Degree Days 15 (Base 50)    
Moisture  
Dew Point 62 °F    
Average Humidity 93    
Maximum Humidity 100    
Minimum Humidity 75    
Precipitation  
Precipitation 0.05 in - - ()
Sea Level Pressure  
Sea Level Pressure 29.89 in    
Wind  
Wind Speed 8 mph (SSW)    
Max Wind Speed 16 mph    
Max Gust Speed 23 mph    
Visibility 5 miles    
Events Fog , Rain    
Averages and records for this station are not official NWS values.
T = Trace of Precipitation, MM = Missing Value Source: NWS Daily Summary

Daily Weather History Graph

Daily Weather History Graph

Search for Another Location

Airport:

Trip Planner

Search our weather history database for the weather conditions in past years. The results will help you decide how hot, cold, wet, or windy it might be!

Date:

Astronomy

Oct. 06, 2012 Rise Set
Actual Time 6:42 AM EDT 6:13 PM EDT
Civil Twilight 6:15 AM EDT 6:40 PM EDT
Nautical Twilight 5:43 AM EDT 7:12 PM EDT
Astronomical Twilight 5:10 AM EDT 7:44 PM EDT
Moon 10:23 PM EDT (10/6) 12:37 PM EDT (10/6)
Length of Visible Light 12h 25m
Length of Day
11h 30m
Waning Gibbous, 65% of the Moon is Illuminated
Oct 6
Waning Gibbous
Oct 8
Last Quarter
Oct 15
New
Oct 21
First Quarter
Oct 29
Full

Hourly Weather History & Observations

Time (EDT) Temp. Dew Point Humidity Pressure Visibility Wind Dir Wind Speed Gust Speed Precip Events Conditions
12:25 AM 59.0 °F 59.0 °F 100% 29.95 in 0.2 mi South 3.5 mph - N/A Fog Fog
12:33 AM 60.8 °F 60.8 °F 100% 29.95 in 0.5 mi SSW 4.6 mph - N/A Fog Fog
12:42 AM 60.8 °F 60.8 °F 100% 29.95 in 0.2 mi SSW 5.8 mph - N/A Fog Fog
12:53 AM 61.0 °F 61.0 °F 100% 29.94 in 0.2 mi SSW 5.8 mph - N/A Fog Fog
1:02 AM 60.8 °F 60.8 °F 100% 29.94 in 0.5 mi SSW 4.6 mph - N/A Fog Fog
1:53 AM 63.0 °F 63.0 °F 100% 29.94 in 1.5 mi SW 4.6 mph - 0.01 in   Overcast
2:19 AM 62.6 °F 62.6 °F 100% 29.93 in 0.8 mi SW 4.6 mph - N/A   Overcast
2:34 AM 62.6 °F 62.6 °F 100% 29.92 in 0.2 mi SW 4.6 mph - N/A Fog Fog
2:53 AM 62.1 °F 62.1 °F 100% 29.92 in 0.2 mi SSW 4.6 mph - N/A Fog Fog
3:00 AM 62.6 °F 62.6 °F 100% 29.92 in 0.2 mi SSW 4.6 mph - N/A Fog Fog
3:53 AM 61.0 °F 61.0 °F 100% 29.92 in 0.5 mi SSW 4.6 mph - N/A Fog Fog
4:13 AM 62.6 °F 62.6 °F 100% 29.91 in 1.2 mi South 4.6 mph - N/A   Mostly Cloudy
4:29 AM 62.6 °F 62.6 °F 100% 29.92 in 2.0 mi SSW 5.8 mph - N/A   Scattered Clouds
4:53 AM 63.0 °F 63.0 °F 100% 29.91 in 3.0 mi South 6.9 mph - N/A   Clear
5:53 AM 63.0 °F 63.0 °F 100% 29.91 in 3.0 mi SSW 8.1 mph - N/A   Clear
6:53 AM 63.0 °F 63.0 °F 100% 29.91 in 3.0 mi South 8.1 mph - N/A   Clear
7:53 AM 64.9 °F 64.0 °F 97% 29.91 in 6.0 mi South 9.2 mph - N/A   Clear
8:53 AM 66.0 °F 64.9 °F 96% 29.91 in 7.0 mi South 12.7 mph - N/A   Clear
9:53 AM 66.9 °F 64.9 °F 93% 29.90 in 8.0 mi South 12.7 mph - N/A   Clear
10:53 AM 68.0 °F 64.0 °F 87% 29.89 in 9.0 mi SSW 13.8 mph - N/A   Clear
11:53 AM 69.1 °F 64.9 °F 87% 29.88 in 10.0 mi SSW 12.7 mph - N/A   Clear
12:53 PM 71.1 °F 64.9 °F 81% 29.86 in 10.0 mi SSW 13.8 mph - N/A   Clear
1:53 PM 70.0 °F 64.9 °F 84% 29.84 in 10.0 mi SSW 16.1 mph - N/A   Clear
2:53 PM 70.0 °F 64.0 °F 81% 29.82 in 10.0 mi SSW 16.1 mph - N/A   Clear
3:53 PM 69.1 °F 64.0 °F 84% 29.81 in 9.0 mi SSW 16.1 mph - N/A   Clear
4:53 PM 68.0 °F 64.0 °F 87% 29.81 in 9.0 mi SSW 16.1 mph - N/A   Clear
5:53 PM 66.9 °F 64.0 °F 90% 29.81 in 7.0 mi SSW 16.1 mph - N/A   Clear
7:53 PM 66.0 °F 64.0 °F 93% 29.85 in 8.0 mi SSW 16.1 mph 23.0 mph N/A   Scattered Clouds
8:53 PM 66.0 °F 64.0 °F 93% 29.85 in 8.0 mi SSW 15.0 mph - N/A   Mostly Cloudy
9:26 PM 66.2 °F 64.4 °F 94% 29.85 in 4.0 mi SSW 12.7 mph - 0.03 in Rain Light Rain
9:53 PM 66.0 °F 64.0 °F 93% 29.86 in 7.0 mi SW 11.5 mph - 0.04 in Rain Light Rain
10:33 PM 62.6 °F 55.4 °F 77% 29.88 in 10.0 mi NNW 15.0 mph - 0.00 in   Overcast
10:53 PM 61.0 °F 55.9 °F 83% 29.89 in 10.0 mi NNW 15.0 mph - 0.00 in   Overcast
11:53 PM 60.1 °F 52.0 °F 75% 29.91 in 10.0 mi NW 13.8 mph - N/A   Overcast